Погода в Новой Долине

Украина / Одесская область     46°24′11″N   30°35′02″E
темп.,
°C
ветер,
м/с
пор.,
м/с
влажн.,
%
обл.,
%
осадки,
мм/ч
давл.,
гПа
погр.,
м
16 сентября, чт
чт1600:00+19с23483 0.0 101745
03:00+16ссв2256100 0.0 101817
06:00+16всв335498 0.0 101830
09:00+20всв333488 0.0 1018377
12:00+23в33284 0.0 10191484
15:00+25вюв44255 0.0 10171892
18:00+22ююв54325 0.0 1017483
21:00+16ю33565 0.0 101837
17 сентября, пт
пт1700:00+16юз33655 0.0 101841
03:00+15юз22755 0.0 101716
06:00+15ю238350 0.0 101619
09:00+21ю575990 0.0 1015602
12:00+25ю774358 0.0 10141135
15:00+25ю89465 0.0 10131210
18:00+22ю8116096 0.0 1012649
21:00+20ю71377100 0.0 1011521
18 сентября, сб
сб1800:00+20ю81473100 0.0 1011664
03:00+19ю71378100 0.1 1009548
06:00+20ююз71175100 0.3 1009634
09:00+20ююз71075100 0.4 1009733
12:00+19юз4789100 3.4 1009461
15:00+19зсз3487100 7.6 1009302
18:00+19з3574100 0.1 1009326
21:00+16сз358129 0.1 101095
19 сентября, вс
вс1900:00+15зсз33840 0.0 101143
03:00+14сз22840 0.0 101023
06:00+14сз22860 0.0 101120
09:00+18зюз22660 0.0 1011253
12:00+23юз564461 0.0 10101500
15:00+25з810303 0.0 10092348
18:00+23зсз710315 0.0 10091774
21:00+19сз3747100 0.0 1011345
20 сентября, пн
пн2000:00+16ссз5763100 0.0 1012401
03:00+14ссз586691 0.0 1012322
06:00+11ссз48735 0.0 1012259
09:00+13ссз45576 0.0 1013431
12:00+17сз334784 0.0 1013933
15:00+17з4451100 0.1 1012868
18:00+15сз4659100 0.3 1013580
21:00+13сз5762100 0.4 1014591